Location: Charbonni�res
(45.9952°N, 2.9982°E)
Time: 17:15:14
(UTC+00:00)

EXPRESS MD2 - Pass Details

Date: 29 November 2020
Orbit: 262 x 3991 km, 49.9° (Epoch: 17 January)

Event Time Altitude Azimuth Distance (km) Brightness Sun altitude
Exits shadow 06:04:05 15° 294° (WNW) 1,527 4.9 -10.7°
Maximum altitude 06:07:19 81° 22° (NNE) 785 4.1 -10.2°
Drops below altitude 10° 06:15:14 10° 110° (ESE) 3,544 9.1 -8.9°
Sets 06:19:37 0° 111° (ESE) 5,187 10.9 -8.2°
